Location: Malvern Link
(52.1333°N, 2.3000°W)
Time: 10:22:25
(UTC+00:00)

DMSP B5D2-2 - Pass Details

Date: 18 September 2020
Orbit: 790 x 806 km, 98.3° (Epoch: 30 October)

Event Time Altitude Azimuth Distance (km) Brightness Sun altitude
Rises 20:18:11 0° 14° (NNE) 3,335 7.5 -18.7°
Reaches altitude 10° 20:20:32 10° 14° (NNE) 2,400 6.7 -19.1°
Maximum altitude 20:25:52 87° 286° (WNW) 816 4.1 -19.8°
Drops below altitude 10° 20:31:09 10° 199° (SSW) 2,382 6.4 -20.5°
Sets 20:33:28 0° 199° (SSW) 3,308 7.2 -20.8°
